Weather Roundup
Issued by NWS

Home | Current Version | Previous Version | Graphics & Text | Print | Product List | Glossary Off
Versions: 1 2 3 4 5 6 7 8 9 10 11 12 13 14 15 16 17 18 19 20 21 22 23 24 25 26 27 28 29 30 31 32 33 34 35 36 37 38 39 40 41 42 43 44 45 46 47 48 49 50

000
NZUS93 KARX 251859
HRRWXR

CURRENT HOURLY OBSERVATIONS ACROSS
MUCH OF THE UPPER MISSISSIPPI VALLEY
NATIONAL WEATHER SERVICE LA CROSSE WI
200 PM CDT FRI JUL 25 2014


...SOUTHEAST MINNESOTA...


CITY           SKY/WX    TMP DP  RH WIND       PRES   REMARKS
ROCHESTER      MOSUNNY   77  66  68 S13G21    29.85S
ROCHESTER/MAYO MOCLDY    76  62  63 S12G17    29.84S
WINONA         CLOUDY    73  63  68 S5        29.85F
AUSTIN         MOSUNNY   79  66  65 S16       29.83S
ALBERT LEA     PTSUNNY   79  66  65 S15       29.82R
DODGE CENTER   MOSUNNY   77  66  69 SW13      29.83S
PRESTON        PTSUNNY   74  69  83 S14       29.86F
OWATONNA       MOSUNNY   81  66  61 S13       29.81F
FARIBAULT      PTSUNNY   82  63  51 S9        29.81S
$$

...ELSEWHERE IN MINNESOTA...


CITY           SKY/WX    TMP DP  RH WIND       PRES   REMARKS
MINNEAPOLIS    PTSUNNY   79  66  64 S13       29.79F
INTNL FALLS    CLOUDY    73  63  70 SW3       29.76S
DULUTH         CLOUDY    68  62  81 SW6       29.81F
RED WING       CLOUDY    79  66  65 SW3       29.81F
REDWOOD FALLS  MOSUNNY   82  68  62 S12       29.77S
MANKATO        CLOUDY    79  64  61 S14G23    29.80S
WORTHINGTON    MOSUNNY   79  70  73 S8        29.81S
FAIRMONT       PTSUNNY   79  61  53 S15       29.80S
$$

...SOUTHWEST WISCONSIN...


CITY           SKY/WX    TMP DP  RH WIND       PRES   REMARKS
LA CROSSE      CLOUDY    71  62  73 SE9       29.86F
PRAIRIE DU CHI CLOUDY    70  59  68 S8        29.88F
BOSCOBEL       CLOUDY    71  60  68 VRB3      29.90S
LONE ROCK      NOT AVBL
PLATTEVILLE    CLOUDY    66  61  84 CALM      29.92F
FORT MC COY    CLOUDY    68  59  74 SW7       29.90R
VIROQUA        CLOUDY    68  62  79 S6        29.91R
WIS DELLS      CLOUDY    70  58  66 S13G20    29.90S
$$

...ELSEWHERE IN WISCONSIN...


CITY           SKY/WX    TMP DP  RH WIND       PRES   REMARKS
MILWAUKEE      LGT RAIN  70  57  63 SW13      29.94S
MADISON        CLOUDY    70  58  65 S15G21    29.93S
GREEN BAY      CLOUDY    69  57  65 SW13G22   29.92R
EAU CLAIRE     CLOUDY    73  64  73 S12       29.84F
BLACK RVR FLS  CLOUDY    69  61  76 SW7       29.87F
MEDFORD        CLOUDY    64  60  88 S10       29.89S
WAUSAU         CLOUDY    68  60  75 SW12      29.87F
WIS RAPIDS     CLOUDY    67  60  78 S9        29.91F
MARSHFIELD     CLOUDY    67  61  81 S9        29.89S
RICE LAKE      CLOUDY    68  63  82 SE7       29.86R
$$

...NORTHEAST IOWA...


CITY           SKY/WX    TMP DP  RH WIND       PRES   REMARKS
WATERLOO       CLOUDY    76  66  71 S14       29.84R
DUBUQUE        CLOUDY    71  63  75 S14       29.90S
DECORAH        CLOUDY    70  64  83 VRB7G14   29.87S
MASON CITY     MOSUNNY   81  67  62 S17G26    29.83F
CHARLES CITY   PTSUNNY   77  68  73 S8G15     29.84F
OELWEIN        CLOUDY    70  66  88 S12       29.89R
$$

...ELSEWHERE IN IOWA...


CITY           SKY/WX    TMP DP  RH WIND       PRES   REMARKS
DES MOINES     PTSUNNY   77  65  66 S23G31    29.81F
IOWA CITY      PTSUNNY   73  66  78 S14G23    29.87R
FORT DODGE     CLOUDY    75  64  69 S13       29.82F
MARSHALLTOWN   PTSUNNY   77  66  68 S10G21    29.82R
CEDAR RAPIDS   PTSUNNY   73  64  73 S17G24    29.86R
$$

...NORTHERN ILLINOIS...


CITY           SKY/WX    TMP DP  RH WIND       PRES   REMARKS
CHICAGO-OHARE  CLOUDY    73  56  54 S14       29.89F
DUPAGE         CLOUDY    71  59  65 SW13      29.96R
CHICAGO-MIDWAY CLOUDY    75  58  55 S15G24    29.89F
MOLINE         PTSUNNY   70  64  81 S9G20     29.86S
ROCKFORD       CLOUDY    69  59  70 SW9       29.98R
STERLING       CLOUDY    72  61  68 SW7G17    29.94R
PEORIA         CLOUDY    66  61  84 SW14      29.95S
$$

NOTE: "FAIR" INDICATES FEW OR NO CLOUDS BELOW 12,000 FEET WITH NO
SIGNIFICANT WEATHER AND/OR OBSTRUCTIONS TO VISIBILITY. WIND
SPEEDS ARE IN MILES-PER-HOUR.



USA.gov is the U.S. government's official web portal to all federal, state and local government web resources and services.